sat.trackr.live / text

‹ back to catalog

STARLINK-5689

NORAD 55474 · 2023-015AB

PAYLOAD ACTIVE UNKNOWN

§ Identity

Operator
Country
US
Launch date
2023-02-02
Launch site
AFETR
Launch vehicle
Mass (kg)
RCS (m²)

Purposes: comms

External: N2YO · Heavens-Above · Gunter

§ Orbital elements

Epoch: 2026-09-20T11:46:34.033152Z

Period
94.27 min
Inclination
43.0052°
Eccentricity
0.0001815
Mean motion
15.27576673 rev/d
Perigee alt
481.8 km
Apogee alt
484.3 km
Semi-major
6,861.2 km
B*
1.6056e-5
RAAN
319.9364°
Arg perigee
277.0693°
Mean anomaly
82.9952°
Rev number
20,038

§ Raw data

STARLINK-56891 55474U 23015AB  26263.49067168  .00000179  00000+0  16056-4 0  99942 55474  43.0052 319.9364 0001815 277.0693  82.9952 15.27576673200382

JSON: /api/v1/satellites/55474 · /tle

For live sub-satellite position, see the globe view (requires WebGL).

§ Visibility from observer

Set your observer location to see the next 7 days of passes ≥ 10°. The values pass through the URL so the page stays shareable.

No JS? Fill the form by hand. The geolocation button needs JavaScript.